TimePDT,TemperatureF,Dew PointF,Humidity,Sea Level PressureIn,VisibilityMPH,Wind Direction,Wind SpeedMPH,Gust SpeedMPH,PrecipitationIn,Events,Conditions,WindDirDegrees,DateUTC
12:58 AM,57.0,56.8,99,29.87,10.0,East,2.3,-,N/A,,Overcast,90,2013-06-26 07:58:00
1:58 AM,57.6,57.4,99,29.88,10.0,East,2.3,-,N/A,,Overcast,100,2013-06-26 08:58:00
2:16 AM,57.2,57.2,100,29.87,9.0,SE,1.2,-,N/A,Rain,Light Rain,140,2013-06-26 09:16:00
2:58 AM,58.3,57.2,96,29.88,10.0,Variable,1.2,-,0.02,Rain,Light Rain,0,2013-06-26 09:58:00
2:59 AM,59.0,57.2,94,29.87,10.0,ESE,1.2,-,N/A,,Overcast,120,2013-06-26 09:59:00
3:58 AM,58.1,57.0,96,29.88,10.0,East,1.2,-,0.00,,Overcast,100,2013-06-26 10:58:00
4:58 AM,58.6,57.6,96,29.89,10.0,NNW,3.5,-,N/A,,Overcast,330,2013-06-26 11:58:00
5:58 AM,58.6,57.9,97,29.90,10.0,NNW,2.3,-,N/A,,Overcast,340,2013-06-26 12:58:00
6:58 AM,59.5,57.2,92,29.91,10.0,Calm,Calm,-,N/A,,Overcast,0,2013-06-26 13:58:00
7:02 AM,59.0,57.2,94,29.90,10.0,Calm,Calm,-,N/A,Rain,Light Rain,0,2013-06-26 14:02:00
7:24 AM,59.0,57.2,94,29.91,10.0,Calm,Calm,-,N/A,,Overcast,0,2013-06-26 14:24:00
7:58 AM,60.1,58.1,93,29.93,10.0,ESE,2.3,-,0.00,,Overcast,120,2013-06-26 14:58:00
8:17 AM,60.8,57.2,88,29.92,10.0,SE,2.3,-,N/A,Rain,Light Rain,130,2013-06-26 15:17:00
8:28 AM,60.8,59.0,94,29.92,10.0,ESE,4.6,-,N/A,,Mostly Cloudy,120,2013-06-26 15:28:00
8:58 AM,61.7,57.4,86,29.93,10.0,SE,4.6,-,0.00,,Overcast,140,2013-06-26 15:58:00
9:58 AM,64.0,57.6,79,29.95,10.0,South,5.8,-,N/A,,Overcast,180,2013-06-26 16:58:00
10:58 AM,67.5,57.0,69,29.96,10.0,South,9.2,-,N/A,,Overcast,180,2013-06-26 17:58:00
11:58 AM,69.1,55.4,62,29.96,10.0,South,10.4,19.6,N/A,,Overcast,190,2013-06-26 18:58:00
12:58 PM,71.4,55.0,56,29.98,10.0,South,17.3,21.9,N/A,,Overcast,190,2013-06-26 19:58:00
1:58 PM,71.6,55.4,57,29.99,10.0,South,10.4,17.3,N/A,,Partly Cloudy,180,2013-06-26 20:58:00
2:51 PM,71.6,55.4,57,29.99,10.0,SW,16.1,-,N/A,Rain,Light Rain,220,2013-06-26 21:51:00
2:58 PM,71.2,56.7,60,30.01,10.0,SW,13.8,-,0.00,Rain,Light Rain,230,2013-06-26 21:58:00
3:01 PM,71.6,55.4,57,30.00,10.0,SW,15.0,-,N/A,,Overcast,220,2013-06-26 22:01:00
3:29 PM,69.8,57.2,64,30.00,10.0,West,12.7,-,N/A,Rain,Light Rain,260,2013-06-26 22:29:00
3:44 PM,68.0,59.0,73,30.01,10.0,West,12.7,-,N/A,,Overcast,260,2013-06-26 22:44:00
3:58 PM,68.7,59.4,72,30.02,10.0,West,9.2,-,0.00,,Overcast,270,2013-06-26 22:58:00
4:08 PM,68.0,59.0,73,30.02,10.0,West,6.9,-,N/A,Rain,Light Rain,260,2013-06-26 23:08:00
4:18 PM,68.0,59.0,73,30.02,10.0,West,9.2,-,N/A,,Overcast,260,2013-06-26 23:18:00
4:58 PM,68.7,57.9,68,30.04,10.0,West,8.1,-,0.00,,Mostly Cloudy,270,2013-06-26 23:58:00
5:02 PM,68.0,59.0,73,30.03,10.0,West,11.5,-,N/A,Rain,Light Rain,260,2013-06-27 00:02:00
5:13 PM,68.0,57.2,68,30.03,10.0,WSW,6.9,-,N/A,,Overcast,240,2013-06-27 00:13:00
5:55 PM,68.0,57.2,68,30.04,10.0,West,9.2,-,N/A,Rain,Light Rain,260,2013-06-27 00:55:00
5:58 PM,67.3,57.9,72,30.05,10.0,West,10.4,-,0.00,Rain,Light Rain,280,2013-06-27 00:58:00
6:11 PM,66.2,59.0,78,30.05,10.0,WSW,10.4,-,N/A,,Overcast,250,2013-06-27 01:11:00
6:58 PM,68.4,58.6,71,30.06,10.0,NNW,6.9,-,0.00,,Mostly Cloudy,330,2013-06-27 01:58:00
7:55 PM,65.8,57.7,75,30.07,10.0,WNW,6.9,-,N/A,,Overcast,300,2013-06-27 02:55:00
8:55 PM,63.9,56.3,76,30.08,10.0,NNW,4.6,-,N/A,,Overcast,330,2013-06-27 03:55:00
9:55 PM,62.4,55.8,79,30.09,10.0,NNW,4.6,-,N/A,,Mostly Cloudy,330,2013-06-27 04:55:00
10:55 PM,61.3,55.8,82,30.09,10.0,North,3.5,-,N/A,,Mostly Cloudy,360,2013-06-27 05:55:00
11:58 PM,61.7,55.4,80,30.09,10.0,North,2.3,-,N/A,,Overcast,350,2013-06-27 06:58:00